• Em Portugal
  • Lista de países
  • Para 7 dias
  • Temperatura da água
  • Mapas de satélite
  • Mapa do tempo
  • Widgets de tempo
  • user-avatar
    Iniciar Sessão

    Previsão horária em Yulara

    Hoje, 17 Agosto, Sexta-feira

    Tempo Temperatura Precipitação Vento Pressão Humidade
    00:00 +15°C° 0 mm 4 m/s 718 mmHg 35%
    01:00 +15°C° 0 mm 4 m/s 718 mmHg 38%
    02:00 +14°C° 0 mm 4 m/s 718 mmHg 41%
    03:00 +13°C° 0 mm 4 m/s 717 mmHg 47%
    04:00 +12°C° 0 mm 4 m/s 717 mmHg 49%
    05:00 +12°C° 0 mm 4 m/s 718 mmHg 52%
    06:00 +11°C° 0 mm 4 m/s 718 mmHg 54%
    07:00 +13°C° 0 mm 4 m/s 718 mmHg 49%
    08:00 +15°C° 0 mm 4 m/s 718 mmHg 44%
    09:00 +16°C° 0 mm 5 m/s 719 mmHg 39%
    10:00 +19°C° 0 mm 4 m/s 719 mmHg 32%
    11:00 +22°C° 0 mm 3 m/s 718 mmHg 25%
    12:00 +25°C° 0 mm 3 m/s 718 mmHg 18%
    13:00 +26°C° 0 mm 2 m/s 718 mmHg 16%
    14:00 +27°C° 0 mm 2 m/s 717 mmHg 14%
    15:00 +28°C° 0 mm 2 m/s 717 mmHg 11%
    16:00 +26°C° 0 mm 2 m/s 717 mmHg 13%
    17:00 +24°C° 0 mm 2 m/s 717 mmHg 15%
    18:00 +23°C° 0 mm 2 m/s 717 mmHg 17%
    19:00 +21°C° 0 mm 2 m/s 717 mmHg 18%
    20:00 +20°C° 0 mm 3 m/s 718 mmHg 20%
    21:00 +19°C° 0 mm 3 m/s 719 mmHg 21%
    22:00 +19°C° 0 mm 4 m/s 719 mmHg 25%
    23:00 +19°C° 0 mm 5 m/s 719 mmHg 29%

    Amanhã, 18 Agosto, Sábado

    Tempo Temperatura Precipitação Vento Pressão Humidade
    00:00 +17°C° 0 mm 7 m/s 720 mmHg 33%
    01:00 +17°C° 0 mm 7 m/s 720 mmHg 35%
    02:00 +16°C° 0 mm 7 m/s 720 mmHg 38%
    03:00 +15°C° 0 mm 8 m/s 720 mmHg 41%
    04:00 +15°C° 0 mm 7 m/s 720 mmHg 42%
    05:00 +14°C° 0 mm 7 m/s 721 mmHg 44%
    06:00 +12°C° 0 mm 7 m/s 721 mmHg 46%
    07:00 +14°C° 0 mm 7 m/s 722 mmHg 47%
    08:00 +15°C° 0 mm 8 m/s 722 mmHg 48%
    09:00 +15°C° 0 mm 8 m/s 723 mmHg 49%
    10:00 +17°C° 0 mm 8 m/s 723 mmHg 44%
    11:00 +20°C° 0 mm 7 m/s 723 mmHg 39%
    12:00 +22°C° 0 mm 7 m/s 723 mmHg 34%
    13:00 +22°C° 0 mm 6 m/s 722 mmHg 32%
    14:00 +23°C° 0 mm 6 m/s 722 mmHg 30%
    15:00 +25°C° 0 mm 5 m/s 721 mmHg 29%
    16:00 +23°C° 0 mm 5 m/s 722 mmHg 31%
    17:00 +21°C° 0 mm 5 m/s 722 mmHg 32%
    18:00 +20°C° 0 mm 5 m/s 722 mmHg 34%
    19:00 +19°C° 0 mm 6 m/s 723 mmHg 35%
    20:00 +17°C° 0 mm 6 m/s 724 mmHg 36%
    21:00 +16°C° 0 mm 7 m/s 724 mmHg 38%
    22:00 +15°C° 0 mm 7 m/s 724 mmHg 36%
    23:00 +14°C° 0 mm 7 m/s 725 mmHg 35%

    Depois de amanhã, 19 Agosto, Domingo

    Tempo Temperatura Precipitação Vento Pressão Humidade
    00:00 +12°C° 0 mm 7 m/s 725 mmHg 33%
    01:00 +11°C° 0 mm 6 m/s 725 mmHg 34%
    02:00 +11°C° 0 mm 6 m/s 725 mmHg 35%
    03:00 +10°C° 0 mm 6 m/s 724 mmHg 36%
    04:00 +9°C° 0 mm 6 m/s 725 mmHg 39%
    05:00 +9°C° 0 mm 6 m/s 725 mmHg 41%
    06:00 +8°C° 0 mm 6 m/s 725 mmHg 44%
    07:00 +10°C° 0 mm 7 m/s 725 mmHg 42%
    08:00 +11°C° 0 mm 8 m/s 726 mmHg 40%
    09:00 +12°C° 0 mm 9 m/s 726 mmHg 38%
    10:00 +15°C° 0 mm 8 m/s 726 mmHg 34%
    11:00 +16°C° 0 mm 8 m/s 726 mmHg 31%
    12:00 +18°C° 0 mm 8 m/s 726 mmHg 27%
    13:00 +20°C° 0 mm 7 m/s 725 mmHg 24%
    14:00 +21°C° 0 mm 7 m/s 724 mmHg 21%
    15:00 +22°C° 0 mm 6 m/s 723 mmHg 19%
    16:00 +20°C° 0 mm 6 m/s 723 mmHg 20%
    17:00 +19°C° 0 mm 5 m/s 723 mmHg 21%
    18:00 +18°C° 0 mm 4 m/s 723 mmHg 23%
    19:00 +16°C° 0 mm 5 m/s 724 mmHg 25%
    20:00 +15°C° 0 mm 5 m/s 724 mmHg 27%
    21:00 +13°C° 0 mm 5 m/s 724 mmHg 29%
    22:00 +13°C° 0 mm 5 m/s 724 mmHg 31%
    23:00 +12°C° 0 mm 5 m/s 724 mmHg 32%

    20 Agosto, Segunda-feira

    Tempo Temperatura Precipitação Vento Pressão Humidade
    00:00 +10°C° 0 mm 5 m/s 724 mmHg 33%
    01:00 +9°C° 0 mm 5 m/s 724 mmHg 35%
    02:00 +10°C° 0 mm 4 m/s 723 mmHg 36%
    03:00 +8°C° 0 mm 4 m/s 723 mmHg 38%
    04:00 +7°C° 0 mm 4 m/s 723 mmHg 39%
    05:00 +7°C° 0 mm 4 m/s 723 mmHg 41%
    06:00 +6°C° 0 mm 4 m/s 723 mmHg 43%
    07:00 +8°C° 0 mm 4 m/s 724 mmHg 39%
    08:00 +10°C° 0 mm 5 m/s 724 mmHg 35%
    09:00 +12°C° 0 mm 5 m/s 724 mmHg 31%
    10:00 +14°C° 0 mm 5 m/s 724 mmHg 27%
    11:00 +17°C° 0 mm 4 m/s 723 mmHg 24%
    12:00 +19°C° 0 mm 3 m/s 723 mmHg 20%
    13:00 +20°C° 0 mm 2 m/s 722 mmHg 18%
    14:00 +21°C° 0 mm 2 m/s 721 mmHg 17%
    15:00 +22°C° 0 mm 1 m/s 720 mmHg 16%
    16:00 +21°C° 0 mm 1 m/s 720 mmHg 18%
    17:00 +19°C° 0 mm 1 m/s 720 mmHg 20%
    18:00 +18°C° 0 mm 1 m/s 720 mmHg 22%
    19:00 +16°C° 0 mm 1 m/s 720 mmHg 22%
    20:00 +16°C° 0 mm 2 m/s 720 mmHg 21%
    21:00 +16°C° 0 mm 2 m/s 721 mmHg 21%
    22:00 +14°C° 0 mm 3 m/s 721 mmHg 21%
    23:00 +14°C° 0 mm 3 m/s 720 mmHg 21%

    21 Agosto, Terça-feira

    Tempo Temperatura Precipitação Vento Pressão Humidade
    00:00 +13°C° 0 mm 3 m/s 720 mmHg 21%
    01:00 +13°C° 0 mm 3 m/s 720 mmHg 21%
    02:00 +12°C° 0 mm 3 m/s 719 mmHg 21%
    03:00 +11°C° 0 mm 3 m/s 719 mmHg 21%
    04:00 +11°C° 0 mm 3 m/s 719 mmHg 22%
    05:00 +10°C° 0 mm 3 m/s 719 mmHg 22%
    06:00 +10°C° 0 mm 2 m/s 719 mmHg 23%
    07:00 +13°C° 0 mm 2 m/s 719 mmHg 20%
    08:00 +15°C° 0 mm 2 m/s 720 mmHg 18%
    09:00 +17°C° 0 mm 2 m/s 720 mmHg 16%
    10:00 +19°C° 0 mm 3 m/s 720 mmHg 15%
    11:00 +21°C° 0 mm 3 m/s 719 mmHg 14%
    12:00 +24°C° 0 mm 3 m/s 719 mmHg 14%
    13:00 +25°C° 0 mm 3 m/s 718 mmHg 13%
    14:00 +26°C° 0 mm 3 m/s 717 mmHg 13%
    15:00 +26°C° 0 mm 2 m/s 717 mmHg 12%
    16:00 +25°C° 0 mm 2 m/s 717 mmHg 15%
    17:00 +23°C° 0 mm 2 m/s 717 mmHg 17%
    18:00 +21°C° 0 mm 1 m/s 716 mmHg 20%
    19:00 +20°C° 0 mm 2 m/s 717 mmHg 20%
    20:00 +19°C° 0 mm 2 m/s 717 mmHg 20%
    21:00 +19°C° 0 mm 2 m/s 718 mmHg 20%
    22:00 +18°C° 0 mm 3 m/s 717 mmHg 20%
    23:00 +18°C° 0 mm 3 m/s 717 mmHg 20%

    22 Agosto, Quarta-feira

    Tempo Temperatura Precipitação Vento Pressão Humidade
    00:00 +18°C° 0 mm 4 m/s 717 mmHg 20%
    01:00 +17°C° 0 mm 3 m/s 717 mmHg 21%
    02:00 +16°C° 0 mm 3 m/s 716 mmHg 22%
    03:00 +14°C° 0 mm 3 m/s 716 mmHg 23%
    04:00 +14°C° 0 mm 3 m/s 716 mmHg 24%
    05:00 +14°C° 0 mm 3 m/s 716 mmHg 25%
    06:00 +13°C° 0 mm 3 m/s 717 mmHg 25%
    07:00 +16°C° 0 mm 3 m/s 717 mmHg 23%
    08:00 +18°C° 0 mm 4 m/s 718 mmHg 21%
    09:00 +20°C° 0 mm 4 m/s 718 mmHg 19%
    10:00 +22°C° 0 mm 5 m/s 718 mmHg 17%
    11:00 +24°C° 0 mm 6 m/s 718 mmHg 15%
    12:00 +27°C° 0 mm 7 m/s 717 mmHg 13%
    13:00 +28°C° 0 mm 8 m/s 717 mmHg 12%
    14:00 +29°C° 0 mm 8 m/s 716 mmHg 12%
    15:00 +29°C° 0 mm 8 m/s 716 mmHg 12%
    16:00 +28°C° 0 mm 8 m/s 716 mmHg 13%
    17:00 +27°C° 0 mm 7 m/s 716 mmHg 15%
    18:00 +24°C° 0 mm 6 m/s 716 mmHg 17%
    19:00 +23°C° 0 mm 6 m/s 717 mmHg 23%
    20:00 +21°C° 0 mm 7 m/s 718 mmHg 28%
    21:00 +18°C° 0 mm 7 m/s 718 mmHg 34%
    22:00 +17°C° 0 mm 8 m/s 718 mmHg 40%
    23:00 +16°C° 0 mm 8 m/s 718 mmHg 47%
    Mostrar mais